| time (UTC) | temp F | wind direction | speed MPH | gust MPH | rain 1hr in | rain 24hr in | rain mn in | humidity % | barometer mb |
| 20260902031510 | 44 | 315 | 4.0 | 6.0 | 0.00 | 0.00 | 0.00 | 10 | 959.3 |
| 20260902031010 | 44 | 318 | 4.0 | 6.0 | 0.00 | 0.00 | 0.00 | 99 | 959.1 |
| 20260902030510 | 44 | 330 | 4.0 | 7.0 | 0.00 | 0.00 | 0.00 | 99 | 959.2 |
| 20260902030010 | 44 | 332 | 3.0 | 7.0 | 0.00 | 0.00 | 0.00 | 98 | 959.4 |
| 20260902025510 | 45 | 340 | 3.0 | 6.0 | 0.00 | 0.00 | 0.00 | 98 | 959.4 |
| 20260902025010 | 44 | 319 | 4.0 | 6.0 | 0.00 | 0.00 | 0.00 | 98 | 959.5 |
| 20260902024510 | 45 | 306 | 4.0 | 6.0 | 0.00 | 0.00 | 0.00 | 98 | 959.5 |
| 20260902024010 | 45 | 309 | 4.0 | 6.0 | 0.00 | 0.00 | 0.00 | 98 | 959.6 |
| 20260902023510 | 45 | 307 | 3.0 | 6.0 | 0.00 | 0.00 | 0.00 | 97 | 959.6 |
| 20260902023010 | 45 | 11 | 3.0 | 5.0 | 0.00 | 0.00 | 0.00 | 97 | 959.7 |
| 20260902022509 | 45 | 317 | 3.0 | 6.0 | 0.00 | 0.00 | 0.00 | 97 | 959.7 |
| 20260902022009 | 45 | 330 | 4.0 | 6.0 | 0.00 | 0.00 | 0.00 | 96 | 959.8 |
| 20260902021509 | 45 | 303 | 3.0 | 6.0 | 0.00 | 0.00 | 0.00 | 95 | 959.7 |
| 20260902021009 | 46 | 322 | 3.0 | 5.0 | 0.00 | 0.00 | 0.00 | 95 | 959.7 |
| 20260902020509 | 46 | 317 | 3.0 | 5.0 | 0.00 | 0.00 | 0.00 | 94 | 959.8 |
| 20260902020009 | 46 | 328 | 3.0 | 6.0 | 0.00 | 0.00 | 0.00 | 93 | 959.9 |
| 20260902015509 | 46 | 321 | 4.0 | 6.0 | 0.00 | 0.00 | 0.00 | 92 | 960.0 |
| 20260902015009 | 47 | 341 | 3.0 | 5.0 | 0.00 | 0.00 | 0.00 | 91 | 959.9 |
| 20260902014509 | 47 | 317 | 3.0 | 5.0 | 0.00 | 0.00 | 0.00 | 90 | 959.9 |
| 20260902014009 | 48 | 333 | 3.0 | 6.0 | 0.00 | 0.00 | 0.00 | 89 | 960.1 |
| 20260902013509 | 48 | 346 | 3.0 | 6.0 | 0.00 | 0.00 | 0.00 | 89 | 960.1 |
| 20260902013009 | 48 | 12 | 3.0 | 6.0 | 0.00 | 0.00 | 0.00 | 89 | 960.0 |
| 20260902012509 | 48 | 18 | 3.0 | 6.0 | 0.00 | 0.00 | 0.00 | 89 | 960.1 |
| 20260902012009 | 48 | 348 | 3.0 | 6.0 | 0.00 | 0.00 | 0.00 | 90 | 960.1 |
| 20260902011508 | 47 | 359 | 3.0 | 6.0 | 0.00 | 0.00 | 0.00 | 90 | 960.2 |
| 20260902011008 | 47 | 341 | 3.0 | 6.0 | 0.00 | 0.00 | 0.00 | 90 | 960.2 |
| 20260902010508 | 47 | 328 | 3.0 | 5.0 | 0.00 | 0.00 | 0.00 | 90 | 960.4 |
| 20260902010008 | 47 | 13 | 3.0 | 5.0 | 0.00 | 0.00 | 0.00 | 89 | 960.3 |
| 20260902005508 | 48 | 330 | 3.0 | 6.0 | 0.00 | 0.00 | 0.00 | 87 | 960.4 |
| 20260902005008 | 48 | 356 | 3.0 | 6.0 | 0.00 | 0.00 | 0.00 | 87 | 960.4 |
| 20260902004508 | 48 | 353 | 3.0 | 6.0 | 0.00 | 0.00 | 0.00 | 87 | 960.5 |
| 20260902004008 | 48 | 356 | 3.0 | 6.0 | 0.00 | 0.00 | 0.00 | 87 | 960.6 |
| 20260902003508 | 48 | 358 | 2.0 | 5.0 | 0.00 | 0.00 | 0.00 | 87 | 960.5 |
| 20260902003008 | 48 | 356 | 2.0 | 3.0 | 0.00 | 0.00 | 0.00 | 87 | 960.6 |
| 20260902002508 | 48 | 330 | 2.0 | 5.0 | 0.00 | 0.00 | 0.00 | 87 | 960.7 |
| 20260902002008 | 48 | 317 | 2.0 | 5.0 | 0.00 | 0.00 | 0.00 | 86 | 960.7 |
| 20260902001508 | 48 | 340 | 2.0 | 5.0 | 0.00 | 0.00 | 0.00 | 86 | 960.7 |
| 20260902001008 | 48 | 348 | 2.0 | 5.0 | 0.00 | 0.00 | 0.00 | 87 | 960.7 |
| 20260902000508 | 48 | 345 | 2.0 | 5.0 | 0.00 | 0.00 | 0.00 | 87 | 960.7 |
| 20260902000007 | 49 | 350 | 3.0 | 5.0 | 0.00 | 0.00 | 0.00 | 87 | 960.9 |
| 20260901235507 | 48 | 326 | 2.0 | 5.0 | 0.00 | 0.00 | 0.00 | 87 | 960.8 |
| 20260901235007 | 48 | 347 | 2.0 | 4.0 | 0.00 | 0.00 | 0.00 | 87 | 961.0 |
| 20260901234507 | 48 | 15 | 2.0 | 5.0 | 0.00 | 0.00 | 0.00 | 87 | 961.2 |
| 20260901234007 | 49 | 8 | 3.0 | 6.0 | 0.00 | 0.00 | 0.00 | 87 | 961.1 |
| 20260901233507 | 49 | 56 | 4.0 | 6.0 | 0.00 | 0.00 | 0.00 | 87 | 961.2 |
| 20260901233007 | 49 | 63 | 4.0 | 7.0 | 0.00 | 0.00 | 0.00 | 87 | 961.2 |
| 20260901232507 | 49 | 57 | 4.0 | 7.0 | 0.00 | 0.00 | 0.00 | 87 | 961.2 |
| 20260901232007 | 49 | 75 | 3.0 | 6.0 | 0.00 | 0.00 | 0.00 | 87 | 961.2 |
| 20260901231507 | 49 | 31 | 2.0 | 6.0 | 0.00 | 0.00 | 0.00 | 88 | 961.2 |
| 20260901231007 | 49 | 30 | 2.0 | 5.0 | 0.00 | 0.00 | 0.00 | 89 | 961.2 |
| 20260901230507 | 49 | 353 | 2.0 | 6.0 | 0.00 | 0.00 | 0.00 | 90 | 961.2 |
| 20260901230007 | 49 | 5 | 2.0 | 9.0 | 0.00 | 0.00 | 0.00 | 90 | 961.2 |
| 20260901225507 | 49 | 35 | 2.0 | 9.0 | 0.00 | 0.00 | 0.00 | 91 | 961.2 |
| 20260901225007 | 49 | 4 | 2.0 | 6.0 | 0.00 | 0.00 | 0.00 | 91 | 961.2 |
| 20260901224506 | 49 | 58 | 2.0 | 6.0 | 0.00 | 0.00 | 0.00 | 91 | 961.3 |
| 20260901224006 | 49 | 59 | 2.0 | 5.0 | 0.00 | 0.00 | 0.00 | 91 | 961.3 |
| 20260901223506 | 49 | 352 | 2.0 | 5.0 | 0.00 | 0.00 | 0.00 | 92 | 961.4 |
| 20260901223006 | 49 | 52 | 2.0 | 5.0 | 0.00 | 0.00 | 0.00 | 93 | 961.4 |
| 20260901222506 | 49 | 87 | 2.0 | 6.0 | 0.00 | 0.00 | 0.00 | 94 | 961.3 |
| 20260901222006 | 49 | 54 | 2.0 | 6.0 | 0.00 | 0.00 | 0.00 | 94 | 961.4 |
| 20260901221506 | 49 | 16 | 2.0 | 5.0 | 0.00 | 0.00 | 0.00 | 93 | 961.4 |
| 20260901221006 | 49 | 352 | 3.0 | 6.0 | 0.00 | 0.00 | 0.00 | 91 | 961.5 |
| 20260901220506 | 49 | 2 | 3.0 | 6.0 | 0.00 | 0.00 | 0.00 | 89 | 961.5 |
| 20260901220006 | 49 | 350 | 3.0 | 5.0 | 0.00 | 0.00 | 0.00 | 87 | 961.5 |
| 20260901215506 | 50 | 350 | 3.0 | 6.0 | 0.00 | 0.00 | 0.00 | 87 | 961.5 |
| 20260901215006 | 50 | 331 | 3.0 | 6.0 | 0.00 | 0.00 | 0.00 | 85 | 961.5 |
| 20260901214506 | 50 | 341 | 3.0 | 6.0 | 0.00 | 0.00 | 0.00 | 85 | 961.5 |
| 20260901214006 | 50 | 338 | 3.0 | 6.0 | 0.00 | 0.00 | 0.00 | 85 | 961.5 |
| 20260901213506 | 51 | 339 | 3.0 | 4.0 | 0.00 | 0.00 | 0.00 | 85 | 961.5 |
| 20260901213006 | 51 | 325 | 3.0 | 4.0 | 0.00 | 0.00 | 0.00 | 84 | 961.6 |
| 20260901212506 | 51 | 325 | 3.0 | 5.0 | 0.00 | 0.00 | 0.00 | 85 | 961.6 |
| 20260901212005 | 51 | 335 | 3.0 | 5.0 | 0.00 | 0.00 | 0.00 | 84 | 961.7 |
| 20260901211505 | 51 | 325 | 3.0 | 5.0 | 0.00 | 0.00 | 0.00 | 85 | 961.7 |
| 20260901211005 | 51 | 334 | 3.0 | 5.0 | 0.00 | 0.00 | 0.00 | 84 | 961.8 |
| 20260901210505 | 51 | 325 | 3.0 | 5.0 | 0.00 | 0.00 | 0.00 | 84 | 961.7 |
| 20260901210005 | 51 | 324 | 3.0 | 5.0 | 0.00 | 0.00 | 0.00 | 84 | 961.7 |
| 20260901205505 | 51 | 337 | 3.0 | 4.0 | 0.00 | 0.00 | 0.00 | 84 | 961.8 |
| 20260901205005 | 51 | 330 | 3.0 | 4.0 | 0.00 | 0.00 | 0.00 | 85 | 961.8 |
| 20260901204505 | 51 | 337 | 3.0 | 4.0 | 0.00 | 0.00 | 0.00 | 85 | 961.8 |
| 20260901204005 | 51 | 315 | 3.0 | 4.0 | 0.00 | 0.00 | 0.00 | 85 | 961.8 |
| 20260901203505 | 51 | 319 | 3.0 | 4.0 | 0.00 | 0.00 | 0.00 | 85 | 961.8 |
| 20260901203005 | 51 | 327 | 3.0 | 4.0 | 0.00 | 0.00 | 0.00 | 85 | 961.8 |
| 20260901202505 | 51 | 320 | 3.0 | 4.0 | 0.00 | 0.00 | 0.00 | 85 | 961.8 |
| 20260901202005 | 51 | 341 | 3.0 | 4.0 | 0.00 | 0.00 | 0.00 | 85 | 961.8 |
| 20260901201504 | 51 | 323 | 3.0 | 4.0 | 0.00 | 0.00 | 0.00 | 84 | 961.7 |
| 20260901201004 | 51 | 303 | 3.0 | 5.0 | 0.00 | 0.00 | 0.00 | 84 | 961.8 |
| 20260901200504 | 51 | 317 | 3.0 | 5.0 | 0.00 | 0.00 | 0.00 | 84 | 961.8 |
| 20260901200004 | 51 | 297 | 3.0 | 4.0 | 0.00 | 0.00 | 0.00 | 84 | 961.9 |
| 20260901195504 | 51 | 304 | 3.0 | 4.0 | 0.00 | 0.00 | 0.00 | 85 | 961.8 |
| 20260901195004 | 51 | 310 | 3.0 | 5.0 | 0.00 | 0.00 | 0.00 | 85 | 961.8 |
| 20260901194504 | 51 | 316 | 3.0 | 5.0 | 0.00 | 0.00 | 0.00 | 83 | 962.0 |
| 20260901194004 | 51 | 296 | 1.0 | 3.0 | 0.00 | 0.00 | 0.00 | 84 | 961.9 |
| 20260901193504 | 52 | 306 | 1.0 | 3.0 | 0.00 | 0.00 | 0.00 | 85 | 961.9 |
| 20260901193004 | 52 | 285 | 1.0 | 2.0 | 0.00 | 0.00 | 0.00 | 85 | 962.0 |
| 20260901192504 | 52 | 265 | 0.0 | 2.0 | 0.00 | 0.00 | 0.00 | 86 | 962.1 |
| 20260901192004 | 52 | 284 | 1.0 | 3.0 | 0.00 | 0.00 | 0.00 | 84 | 962.1 |
| 20260901191504 | 52 | 100 | 1.0 | 3.0 | 0.00 | 0.00 | 0.00 | 87 | 962.1 |
| 20260901191003 | 52 | 314 | 1.0 | 2.0 | 0.00 | 0.00 | 0.00 | 84 | 962.0 |
| 20260901190503 | 52 | 328 | 1.0 | 2.0 | 0.00 | 0.00 | 0.00 | 84 | 962.0 |
| 20260901190003 | 52 | 272 | 1.0 | 2.0 | 0.00 | 0.00 | 0.00 | 85 | 962.0 |
| 20260901185503 | 52 | 261 | 1.0 | 2.0 | 0.00 | 0.00 | 0.00 | 84 | 961.9 |
| 20260901185003 | 52 | 280 | 1.0 | 2.0 | 0.00 | 0.00 | 0.00 | 82 | 961.9 |
| 20260901184503 | 53 | 308 | 1.0 | 2.0 | 0.00 | 0.00 | 0.00 | 82 | 961.9 |
| 20260901184003 | 53 | 285 | 1.0 | 2.0 | 0.00 | 0.00 | 0.00 | 81 | 961.9 |
| 20260901183503 | 53 | 283 | 1.0 | 2.0 | 0.00 | 0.00 | 0.00 | 80 | 961.9 |
| 20260901183003 | 54 | 305 | 1.0 | 2.0 | 0.00 | 0.00 | 0.00 | 79 | 962.0 |
| 20260901182503 | 54 | 314 | 1.0 | 1.0 | 0.00 | 0.00 | 0.00 | 80 | 962.0 |
| 20260901182003 | 54 | 314 | 1.0 | 2.0 | 0.00 | 0.00 | 0.00 | 80 | 962.0 |
| 20260901181503 | 54 | 333 | 1.0 | 2.0 | 0.00 | 0.00 | 0.00 | 80 | 962.0 |
| 20260901181002 | 54 | 313 | 1.0 | 2.0 | 0.00 | 0.00 | 0.00 | 79 | 962.0 |
| 20260901180502 | 54 | 309 | 1.0 | 2.0 | 0.00 | 0.00 | 0.00 | 81 | 962.0 |
| 20260901180002 | 55 | 317 | 1.0 | 3.0 | 0.00 | 0.00 | 0.00 | 77 | 962.3 |
| 20260901175502 | 55 | 273 | 1.0 | 3.0 | 0.00 | 0.00 | 0.00 | 76 | 962.1 |
| 20260901175002 | 56 | 284 | 1.0 | 2.0 | 0.00 | 0.00 | 0.00 | 75 | 962.0 |
| 20260901174502 | 56 | 303 | 1.0 | 2.0 | 0.00 | 0.00 | 0.00 | 75 | 962.1 |
| 20260901174002 | 56 | 335 | 1.0 | 2.0 | 0.00 | 0.00 | 0.00 | 73 | 962.1 |
| 20260901173502 | 57 | 338 | 1.0 | 2.0 | 0.00 | 0.00 | 0.00 | 73 | 962.0 |
| 20260901173002 | 58 | 309 | 1.0 | 2.0 | 0.00 | 0.00 | 0.00 | 70 | 961.9 |
| 20260901172502 | 58 | 328 | 1.0 | 2.0 | 0.00 | 0.00 | 0.00 | 70 | 961.9 |
| 20260901172002 | 58 | 323 | 1.0 | 2.0 | 0.00 | 0.00 | 0.00 | 72 | 961.9 |
| 20260901171502 | 58 | 86 | 1.0 | 2.0 | 0.00 | 0.00 | 0.00 | 68 | 962.0 |
| 20260901171002 | 58 | 358 | 1.0 | 2.0 | 0.00 | 0.00 | 0.00 | 68 | 962.0 |
| 20260901170502 | 58 | 310 | 1.0 | 4.0 | 0.00 | 0.00 | 0.00 | 69 | 962.0 |
| 20260901170001 | 58 | 343 | 1.0 | 4.0 | 0.00 | 0.00 | 0.00 | 68 | 962.0 |
| 20260901165501 | 59 | 6 | 1.0 | 3.0 | 0.00 | 0.00 | 0.00 | 67 | 962.1 |
| 20260901165001 | 59 | 28 | 1.0 | 3.0 | 0.00 | 0.00 | 0.00 | 68 | 962.1 |
| 20260901164501 | 59 | 268 | 2.0 | 4.0 | 0.00 | 0.00 | 0.00 | 66 | 962.1 |
| 20260901164001 | 59 | 276 | 2.0 | 4.0 | 0.00 | 0.00 | 0.00 | 66 | 962.2 |
| 20260901163501 | 59 | 257 | 1.0 | 4.0 | 0.00 | 0.00 | 0.00 | 65 | 962.3 |
| 20260901163001 | 59 | 27 | 1.0 | 4.0 | 0.00 | 0.00 | 0.00 | 67 | 962.3 |
| 20260901162501 | 59 | 356 | 2.0 | 7.0 | 0.00 | 0.00 | 0.00 | 65 | 962.2 |
| 20260901162001 | 59 | 321 | 3.0 | 7.0 | 0.00 | 0.00 | 0.00 | 66 | 962.1 |
| 20260901161501 | 59 | 233 | 3.0 | 7.0 | 0.00 | 0.00 | 0.00 | 66 | 962.1 |
| 20260901161001 | 59 | 263 | 3.0 | 8.0 | 0.00 | 0.00 | 0.00 | 67 | 962.0 |
| 20260901160501 | 59 | 277 | 4.0 | 8.0 | 0.00 | 0.00 | 0.00 | 67 | 962.0 |
| 20260901160001 | 59 | 226 | 3.0 | 7.0 | 0.00 | 0.00 | 0.00 | 65 | 961.9 |
| 20260901155501 | 59 | 281 | 3.0 | 9.0 | 0.00 | 0.00 | 0.00 | 66 | 961.9 |
| 20260901155001 | 60 | 327 | 3.0 | 9.0 | 0.00 | 0.00 | 0.00 | 66 | 962.1 |
| 20260901154500 | 60 | 235 | 3.0 | 9.0 | 0.00 | 0.00 | 0.00 | 66 | 962.1 |
| 20260901154000 | 59 | 248 | 3.0 | 9.0 | 0.00 | 0.00 | 0.00 | 64 | 962.1 |
| 20260901153500 | 60 | 257 | 3.0 | 7.0 | 0.00 | 0.00 | 0.00 | 65 | 962.1 |
| 20260901153000 | 60 | 244 | 3.0 | 7.0 | 0.00 | 0.00 | 0.00 | 64 | 962.1 |
| 20260901152500 | 60 | 267 | 4.0 | 10.0 | 0.00 | 0.00 | 0.00 | 63 | 962.2 |
| 20260901152000 | 60 | 243 | 4.0 | 10.0 | 0.00 | 0.00 | 0.00 | 65 | 962.3 |
| 20260901151500 | 60 | 271 | 3.0 | 10.0 | 0.00 | 0.00 | 0.00 | 63 | 962.4 |
| 20260901151000 | 60 | 123 | 3.0 | 9.0 | 0.00 | 0.00 | 0.00 | 63 | 962.4 |
| 20260901150500 | 60 | 236 | 3.0 | 9.0 | 0.00 | 0.00 | 0.00 | 65 | 962.5 |
| 20260901150000 | 60 | 243 | 3.0 | 9.0 | 0.00 | 0.00 | 0.00 | 63 | 962.5 |
| 20260901145500 | 60 | 244 | 4.0 | 9.0 | 0.00 | 0.00 | 0.00 | 63 | 962.5 |
| 20260901145000 | 61 | 195 | 3.0 | 9.0 | 0.00 | 0.00 | 0.00 | 61 | 962.5 |
| 20260901144500 | 61 | 146 | 3.0 | 9.0 | 0.00 | 0.00 | 0.00 | 61 | 962.5 |
| 20260901144000 | 61 | 261 | 3.0 | 9.0 | 0.00 | 0.00 | 0.00 | 60 | 962.5 |
| 20260901143500 | 62 | 87 | 2.0 | 10.0 | 0.00 | 0.00 | 0.00 | 57 | 962.7 |
| 20260901143000 | 62 | 116 | 3.0 | 10.0 | 0.00 | 0.00 | 0.00 | 57 | 962.6 |
| 20260901142500 | 62 | 27 | 4.0 | 11.0 | 0.00 | 0.00 | 0.00 | 57 | 962.6 |
| 20260901142000 | 62 | 243 | 4.0 | 13.0 | 0.00 | 0.00 | 0.00 | 58 | 962.7 |
| 20260901141459 | 61 | 191 | 4.0 | 13.0 | 0.00 | 0.00 | 0.00 | 58 | 962.5 |
| 20260901140959 | 60 | 181 | 5.0 | 13.0 | 0.00 | 0.00 | 0.00 | 59 | 962.6 |
| 20260901140459 | 60 | 251 | 4.0 | 13.0 | 0.00 | 0.00 | 0.00 | 60 | 962.5 |
| 20260901135959 | 61 | 207 | 4.0 | 10.0 | 0.00 | 0.00 | 0.00 | 58 | 962.6 |
| 20260901135459 | 61 | 232 | 4.0 | 13.0 | 0.00 | 0.00 | 0.00 | 60 | 962.5 |
| 20260901134959 | 61 | 256 | 4.0 | 13.0 | 0.00 | 0.00 | 0.00 | 58 | 962.6 |
| 20260901134459 | 62 | 254 | 4.0 | 13.0 | 0.00 | 0.00 | 0.00 | 55 | 962.5 |
| 20260901133959 | 62 | 151 | 4.0 | 13.0 | 0.00 | 0.00 | 0.00 | 56 | 962.5 |
| 20260901133459 | 62 | 288 | 3.0 | 10.0 | 0.00 | 0.00 | 0.00 | 57 | 962.6 |
| 20260901132959 | 63 | 191 | 3.0 | 9.0 | 0.00 | 0.00 | 0.00 | 57 | 962.5 |
| 20260901132459 | 62 | 270 | 5.0 | 12.0 | 0.00 | 0.00 | 0.00 | 57 | 962.6 |
| 20260901131959 | 61 | 111 | 5.0 | 12.0 | 0.00 | 0.00 | 0.00 | 57 | 962.6 |
| 20260901131459 | 61 | 242 | 5.0 | 13.0 | 0.00 | 0.00 | 0.00 | 57 | 962.6 |
| 20260901130959 | 61 | 210 | 5.0 | 13.0 | 0.00 | 0.00 | 0.00 | 57 | 962.6 |
| 20260901130459 | 61 | 78 | 5.0 | 11.0 | 0.00 | 0.00 | 0.00 | 60 | 962.6 |
| 20260901125959 | 61 | 226 | 5.0 | 12.0 | 0.00 | 0.00 | 0.00 | 58 | 962.6 |
| 20260901125458 | 60 | 223 | 5.0 | 12.0 | 0.00 | 0.00 | 0.00 | 59 | 962.6 |
| 20260901124958 | 61 | 229 | 5.0 | 12.0 | 0.00 | 0.00 | 0.00 | 59 | 962.6 |
| 20260901124458 | 61 | 243 | 5.0 | 12.0 | 0.00 | 0.00 | 0.00 | 61 | 962.7 |
| 20260901123958 | 60 | 261 | 5.0 | 14.0 | 0.00 | 0.00 | 0.00 | 60 | 962.6 |
| 20260901123458 | 61 | 234 | 5.0 | 14.0 | 0.00 | 0.00 | 0.00 | 57 | 962.7 |
| 20260901122958 | 61 | 189 | 4.0 | 13.0 | 0.00 | 0.00 | 0.00 | 59 | 962.4 |
| 20260901122458 | 61 | 229 | 5.0 | 13.0 | 0.00 | 0.00 | 0.00 | 59 | 962.5 |
| 20260901121958 | 60 | 211 | 6.0 | 15.0 | 0.00 | 0.00 | 0.00 | 60 | 962.6 |
| 20260901121458 | 60 | 241 | 6.0 | 15.0 | 0.00 | 0.00 | 0.00 | 61 | 962.5 |
| 20260901120958 | 60 | 225 | 7.0 | 15.0 | 0.00 | 0.00 | 0.00 | 61 | 962.6 |
| 20260901120458 | 60 | 228 | 6.0 | 13.0 | 0.00 | 0.00 | 0.00 | 62 | 962.6 |
| 20260901115958 | 60 | 215 | 5.0 | 12.0 | 0.00 | 0.00 | 0.00 | 61 | 962.6 |
| 20260901115458 | 60 | 161 | 6.0 | 17.0 | 0.00 | 0.00 | 0.00 | 62 | 962.5 |
| 20260901114958 | 59 | 207 | 7.0 | 17.0 | 0.00 | 0.00 | 0.00 | 62 | 962.6 |
| 20260901114457 | 59 | 225 | 7.0 | 17.0 | 0.00 | 0.00 | 0.00 | 63 | 962.5 |
| 20260901113957 | 59 | 227 | 6.0 | 14.0 | 0.00 | 0.00 | 0.00 | 63 | 962.6 |
| 20260901113457 | 59 | 235 | 6.0 | 14.0 | 0.00 | 0.00 | 0.00 | 61 | 962.5 |
| 20260901112957 | 59 | 225 | 5.0 | 15.0 | 0.00 | 0.00 | 0.00 | 61 | 962.6 |
| 20260901112457 | 60 | 147 | 6.0 | 18.0 | 0.00 | 0.00 | 0.00 | 63 | 962.7 |
| 20260901111957 | 59 | 230 | 6.0 | 18.0 | 0.00 | 0.00 | 0.00 | 63 | 962.6 |
| 20260901111457 | 59 | 235 | 5.0 | 17.0 | 0.00 | 0.00 | 0.00 | 62 | 962.5 |
| 20260901110957 | 59 | 135 | 6.0 | 17.0 | 0.00 | 0.00 | 0.00 | 64 | 962.5 |
| 20260901110457 | 58 | 224 | 6.0 | 17.0 | 0.00 | 0.00 | 0.00 | 63 | 962.5 |
| 20260901105957 | 58 | 161 | 5.0 | 14.0 | 0.00 | 0.00 | 0.00 | 64 | 962.5 |
| 20260901105457 | 58 | 244 | 6.0 | 14.0 | 0.00 | 0.00 | 0.00 | 63 | 962.6 |
| 20260901104957 | 58 | 212 | 7.0 | 17.0 | 0.00 | 0.00 | 0.00 | 65 | 962.6 |
| 20260901104457 | 58 | 234 | 7.0 | 19.0 | 0.00 | 0.00 | 0.00 | 65 | 962.6 |
| 20260901103957 | 58 | 217 | 7.0 | 19.0 | 0.00 | 0.00 | 0.00 | 67 | 962.6 |
| 20260901103457 | 58 | 244 | 6.0 | 15.0 | 0.00 | 0.00 | 0.00 | 66 | 962.6 |
| 20260901102956 | 58 | 219 | 6.0 | 15.0 | 0.00 | 0.00 | 0.00 | 66 | 962.5 |
| 20260901102456 | 58 | 175 | 5.0 | 15.0 | 0.00 | 0.00 | 0.00 | 66 | 962.5 |
| 20260901101956 | 58 | 208 | 5.0 | 16.0 | 0.00 | 0.00 | 0.00 | 65 | 962.6 |
| 20260901101456 | 58 | 245 | 6.0 | 16.0 | 0.00 | 0.00 | 0.00 | 67 | 962.7 |
| 20260901100956 | 57 | 217 | 6.0 | 21.0 | 0.00 | 0.00 | 0.00 | 67 | 962.8 |
| 20260901100456 | 58 | 262 | 6.0 | 21.0 | 0.00 | 0.00 | 0.00 | 69 | 962.7 |
| 20260901095956 | 58 | 70 | 6.0 | 17.0 | 0.00 | 0.00 | 0.00 | 68 | 962.7 |
| 20260901095456 | 57 | 211 | 6.0 | 17.0 | 0.00 | 0.00 | 0.00 | 67 | 962.7 |
| 20260901094956 | 58 | 90 | 5.0 | 15.0 | 0.00 | 0.00 | 0.00 | 70 | 962.6 |
| 20260901094456 | 57 | 218 | 5.0 | 16.0 | 0.00 | 0.00 | 0.00 | 69 | 962.5 |
| 20260901093956 | 57 | 109 | 6.0 | 16.0 | 0.00 | 0.00 | 0.00 | 70 | 962.6 |
| 20260901093456 | 55 | 253 | 5.0 | 14.0 | 0.00 | 0.00 | 0.00 | 70 | 962.4 |
| 20260901092956 | 56 | 237 | 5.0 | 12.0 | 0.00 | 0.00 | 0.00 | 71 | 962.7 |
| 20260901092456 | 56 | 217 | 6.0 | 13.0 | 0.00 | 0.00 | 0.00 | 71 | 962.6 |
| 20260901091956 | 57 | 231 | 5.0 | 13.0 | 0.00 | 0.00 | 0.00 | 67 | 962.6 |
| 20260901091456 | 58 | 131 | 4.0 | 15.0 | 0.00 | 0.00 | 0.00 | 70 | 962.6 |
| 20260901090955 | 57 | 215 | 4.0 | 15.0 | 0.00 | 0.00 | 0.00 | 68 | 962.5 |
| 20260901090455 | 58 | 31 | 4.0 | 16.0 | 0.00 | 0.00 | 0.00 | 72 | 962.5 |
| 20260901085955 | 57 | 101 | 6.0 | 19.0 | 0.00 | 0.00 | 0.00 | 72 | 962.5 |
| 20260901085455 | 55 | 210 | 6.0 | 19.0 | 0.00 | 0.00 | 0.00 | 70 | 962.4 |
| 20260901084955 | 56 | 78 | 5.0 | 19.0 | 0.00 | 0.00 | 0.00 | 73 | 962.5 |
| 20260901084455 | 56 | 185 | 5.0 | 19.0 | 0.00 | 0.00 | 0.00 | 70 | 962.5 |
| 20260901083955 | 56 | 104 | 5.0 | 19.0 | 0.00 | 0.00 | 0.00 | 72 | 962.5 |
| 20260901083455 | 56 | 52 | 5.0 | 17.0 | 0.00 | 0.00 | 0.00 | 73 | 962.5 |
| 20260901082955 | 56 | 195 | 5.0 | 14.0 | 0.00 | 0.00 | 0.00 | 70 | 962.5 |
| 20260901082455 | 56 | 226 | 5.0 | 14.0 | 0.00 | 0.00 | 0.00 | 73 | 962.5 |
| 20260901081955 | 56 | 128 | 4.0 | 14.0 | 0.00 | 0.00 | 0.00 | 71 | 962.6 |
| 20260901081455 | 56 | 243 | 4.0 | 12.0 | 0.00 | 0.00 | 0.00 | 71 | 962.5 |
| 20260901080955 | 56 | 99 | 4.0 | 14.0 | 0.00 | 0.00 | 0.00 | 70 | 962.5 |
| 20260901080455 | 56 | 267 | 4.0 | 15.0 | 0.00 | 0.00 | 0.00 | 72 | 962.6 |
| 20260901075954 | 55 | 179 | 4.0 | 15.0 | 0.00 | 0.00 | 0.00 | 74 | 962.6 |
| 20260901075454 | 56 | 93 | 4.0 | 14.0 | 0.00 | 0.00 | 0.00 | 72 | 962.4 |
| 20260901074954 | 55 | 115 | 4.0 | 14.0 | 0.00 | 0.00 | 0.00 | 76 | 962.5 |
| 20260901074454 | 55 | 33 | 5.0 | 12.0 | 0.00 | 0.00 | 0.00 | 74 | 962.6 |
| 20260901073954 | 55 | 209 | 5.0 | 12.0 | 0.00 | 0.00 | 0.00 | 76 | 962.7 |
| 20260901073454 | 55 | 164 | 4.0 | 11.0 | 0.00 | 0.00 | 0.00 | 75 | 962.7 |
| 20260901072954 | 55 | 136 | 4.0 | 11.0 | 0.00 | 0.00 | 0.00 | 74 | 962.5 |
| 20260901072454 | 55 | 106 | 5.0 | 15.0 | 0.00 | 0.00 | 0.00 | 74 | 962.7 |
| 20260901071954 | 55 | 79 | 5.0 | 19.0 | 0.00 | 0.00 | 0.00 | 76 | 962.6 |
| 20260901071454 | 54 | 94 | 5.0 | 19.0 | 0.00 | 0.00 | 0.00 | 74 | 962.4 |
| 20260901070954 | 55 | 117 | 4.0 | 17.0 | 0.00 | 0.00 | 0.00 | 76 | 962.5 |
| 20260901070454 | 55 | 100 | 4.0 | 15.0 | 0.00 | 0.00 | 0.00 | 77 | 962.4 |
| 20260901065954 | 55 | 137 | 4.0 | 18.0 | 0.00 | 0.00 | 0.00 | 78 | 962.6 |
| 20260901065454 | 54 | 200 | 4.0 | 18.0 | 0.00 | 0.00 | 0.00 | 77 | 962.4 |
| 20260901064954 | 54 | 207 | 4.0 | 18.0 | 0.00 | 0.00 | 0.00 | 77 | 962.3 |
| 20260901064454 | 54 | 161 | 4.0 | 15.0 | 0.00 | 0.00 | 0.00 | 79 | 962.2 |
| 20260901063954 | 53 | 149 | 5.0 | 18.0 | 0.00 | 0.00 | 0.00 | 80 | 962.2 |
| 20260901063453 | 53 | 268 | 5.0 | 18.0 | 0.00 | 0.00 | 0.00 | 78 | 962.1 |
| 20260901062953 | 53 | 89 | 5.0 | 17.0 | 0.00 | 0.00 | 0.00 | 78 | 962.1 |
| 20260901062453 | 53 | 259 | 4.0 | 17.0 | 0.00 | 0.00 | 0.00 | 80 | 962.1 |
| 20260901061953 | 53 | 118 | 4.0 | 15.0 | 0.00 | 0.00 | 0.00 | 81 | 962.1 |
| 20260901061453 | 53 | 71 | 4.0 | 13.0 | 0.00 | 0.00 | 0.00 | 81 | 962.1 |
| 20260901060953 | 53 | 166 | 4.0 | 13.0 | 0.00 | 0.00 | 0.00 | 82 | 962.1 |
| 20260901060453 | 53 | 100 | 4.0 | 13.0 | 0.00 | 0.00 | 0.00 | 84 | 962.1 |
| 20260901055953 | 52 | 102 | 4.0 | 13.0 | 0.00 | 0.00 | 0.00 | 84 | 962.2 |
| 20260901055453 | 52 | 222 | 4.0 | 16.0 | 0.00 | 0.00 | 0.00 | 85 | 962.1 |
| 20260901054953 | 52 | 167 | 5.0 | 16.0 | 0.00 | 0.00 | 0.00 | 85 | 962.1 |
| 20260901054453 | 51 | 130 | 5.0 | 15.0 | 0.00 | 0.00 | 0.00 | 87 | 962.1 |
| 20260901053953 | 51 | 87 | 4.0 | 15.0 | 0.00 | 0.00 | 0.00 | 88 | 962.1 |
| 20260901053453 | 51 | 242 | 4.0 | 15.0 | 0.00 | 0.00 | 0.00 | 88 | 962.0 |
| 20260901052953 | 51 | 190 | 4.0 | 15.0 | 0.00 | 0.00 | 0.00 | 90 | 962.0 |
| 20260901052453 | 50 | 165 | 4.0 | 16.0 | 0.00 | 0.00 | 0.00 | 90 | 962.0 |
| 20260901051952 | 50 | 107 | 4.0 | 16.0 | 0.00 | 0.00 | 0.00 | 90 | 962.0 |
| 20260901051452 | 50 | 142 | 4.0 | 12.0 | 0.00 | 0.00 | 0.00 | 90 | 962.1 |
| 20260901050952 | 50 | 94 | 3.0 | 12.0 | 0.00 | 0.00 | 0.00 | 90 | 962.1 |
| 20260901050452 | 50 | 153 | 3.0 | 9.0 | 0.00 | 0.00 | 0.00 | 91 | 962.3 |
| 20260901045952 | 50 | 107 | 3.0 | 10.0 | 0.00 | 0.00 | 0.00 | 92 | 962.2 |
| 20260901045452 | 49 | 133 | 3.0 | 10.0 | 0.00 | 0.00 | 0.00 | 94 | 962.2 |
| 20260901044952 | 48 | 305 | 3.0 | 10.0 | 0.00 | 0.00 | 0.00 | 96 | 962.4 |
| 20260901044452 | 47 | 139 | 3.0 | 10.0 | 0.00 | 0.00 | 0.00 | 97 | 962.3 |
| 20260901043952 | 46 | 76 | 3.0 | 11.0 | 0.00 | 0.00 | 0.00 | 98 | 962.2 |
| 20260901043452 | 46 | 117 | 3.0 | 12.0 | 0.00 | 0.00 | 0.00 | 99 | 962.1 |
| 20260901042952 | 44 | 91 | 3.0 | 12.0 | 0.00 | 0.00 | 0.00 | 10 | 962.1 |
| 20260901042452 | 44 | 37 | 3.0 | 11.0 | 0.00 | 0.00 | 0.00 | 10 | 962.0 |
| 20260901041952 | 43 | 111 | 3.0 | 11.0 | 0.00 | 0.00 | 0.00 | 10 | 962.1 |
| 20260901041452 | 43 | 106 | 3.0 | 11.0 | 0.00 | 0.00 | 0.00 | 10 | 962.1 |
| 20260901040952 | 43 | 94 | 3.0 | 8.0 | 0.00 | 0.00 | 0.00 | 10 | 962.1 |
| 20260901040452 | 43 | 113 | 3.0 | 7.0 | 0.00 | 0.00 | 0.00 | 10 | 962.0 |
| 20260901035951 | 43 | 84 | 3.0 | 12.0 | 0.00 | 0.00 | 0.00 | 10 | 962.1 |
| 20260901035451 | 43 | 91 | 3.0 | 12.0 | 0.00 | 0.00 | 0.00 | 10 | 962.1 |
| 20260901034951 | 43 | 136 | 3.0 | 9.0 | 0.00 | 0.00 | 0.00 | 10 | 962.0 |
| 20260901034451 | 43 | 111 | 2.0 | 8.0 | 0.00 | 0.00 | 0.00 | 10 | 962.0 |
| 20260901033951 | 43 | 101 | 2.0 | 7.0 | 0.00 | 0.00 | 0.00 | 10 | 962.1 |
| 20260901033451 | 43 | 64 | 2.0 | 7.0 | 0.00 | 0.00 | 0.00 | 10 | 962.0 |
| 20260901032951 | 43 | 97 | 2.0 | 9.0 | 0.00 | 0.00 | 0.00 | 10 | 961.9 |
| 20260901032451 | 43 | 104 | 2.0 | 9.0 | 0.00 | 0.00 | 0.00 | 10 | 961.9 |
| 20260901031951 | 43 | 97 | 2.0 | 9.0 | 0.00 | 0.00 | 0.00 | 10 | 961.9 |